User: anonymous   Login
Location: Carabito
(9.8355°N, 67.9249°W)
Time: 09:24:07
(UTC+00:00)
Language:

ARIANE 3 DEB - Orbit

View from above orbital plane
View from above orbital plane
View from above satellite
View from above satellite

Ground track
Ground track

The orbit data is extracted from the following two-line orbital elements,

1 27740U 84114E   24197.75208976  .00140655 -12535-4  27513-2 0  9997
2 27740   6.7356  34.7034 1676041 172.7773 189.9943 12.17604185994188
Epoch (UTC): 15 July 2024 18:03:00
Eccentricity: 0.1676041
inclination: 6.7356°
perigee height: 265 km
apogee height: 2940 km
right ascension of ascending node: 34.7034°
argument of perigee: 172.7773°
revolutions per day: 12.17604185
mean anomaly at epoch: 189.9943°
orbit number at epoch: 99418

The dashed part of the orbit path shows where the satellite is in the earth's shadow,  

DLR